Location: Rotheul
(50.2849°N, 11.2349°E)
Time: 15:44:08
(UTC+02:00)

ISS - Pass Details

Date: 20 July 2018
Orbit: 402 x 408 km, 51.6° (Epoch: 21 July)

Event Time Altitude Azimuth Distance (km) Brightness Sun altitude
Rises 23:44:58 0° 248° (WSW) 2,317 0.0 -16.0°
Reaches altitude 10° 23:47:02 10° 247° (WSW) 1,460 -1.0 -16.2°
Maximum altitude 23:50:18 77° 162° (SSE) 421 -4.0 -16.4°
Drops below altitude 10° 23:53:36 10° 76° (ENE) 1,469 -1.1 -16.6°
Sets 23:55:41 0° 75° (ENE) 2,332 0.0 -16.7°
